Theta_e
336 336 332 332 331 334 330 323 305 311 308 301 301 303 302 312 311 309 309 312 308 317 316 319 319 319 316 315 316 318 319 317 319 313 312 335 346 347 348 349 348 347 348 351 354 355 357 359 359 359 358 358 357 356 355 355 355 355 355 354 353 353 353 353 353 354 354 354 353 353 352 352 352 352 351 351 350 350 351 351 350 350 350 350 350 350 351 351 351 350 351 350 349 349 347 348 348
332 332 332 332 327 330 319 322 309 305 305 301 302 305 306 310 310 308 307 309 314 314 318 320 319 321 320 321 317 318 320 324 327 329 336 343 346 347 350 350 347 346 348 351 352 351 353 358 358 358 357 357 356 356 356 355 355 355 354 354 353 353 353 353 354 354 354 353 353 352 352 352 352 351 351 350 351 351 350 350 350 350 350 350 350 350 351 350 350 350 351 350 349 349 348 348 346
332 335 329 329 327 325 322 318 302 302 299 298 302 305 310 307 307 312 312 312 316 319 319 319 321 319 320 318 315 318 315 329 332 338 339 345 341 345 350 350 348 347 350 351 350 349 353 357 358 357 357 356 356 356 356 355 355 355 354 354 354 353 353 353 353 353 353 353 353 352 352 352 352 351 350 350 350 350 350 350 350 350 350 350 350 350 350 350 351 351 350 349 349 348 348 347 347
328 332 331 327 319 324 313 311 306 303 299 301 301 308 307 308 309 313 312 315 317 318 317 317 315 321 316 312 316 323 320 324 334 338 338 341 344 348 350 350 349 348 349 349 348 348 352 357 358 357 356 356 356 355 355 355 354 354 354 353 352 352 353 353 352 353 353 353 353 352 351 351 351 351 350 350 350 350 350 350 349 350 350 349 350 350 350 350 350 350 350 349 348 348 347 346 346
325 330 331 324 317 312 310 307 306 306 300 303 301 308 308 309 311 311 314 317 317 317 316 316 315 320 321 319 319 315 319 329 333 338 340 344 348 350 350 350 347 346 345 345 346 347 353 357 356 356 356 355 355 354 355 355 354 353 353 352 352 353 353 353 353 353 354 353 352 351 351 351 351 350 350 350 350 350 350 351 350 350 350 349 349 349 350 350 351 350 349 349 348 348 346 346 345
325 326 330 326 315 319 313 306 302 302 305 308 303 305 309 312 311 312 314 316 317 318 317 316 314 314 316 318 322 318 324 323 333 337 340 340 349 351 351 350 346 345 344 345 347 349 353 357 356 356 356 355 354 354 355 354 353 353 353 352 352 353 353 353 353 353 353 353 352 351 351 351 350 350 350 350 349 350 349 350 350 349 349 349 350 350 350 350 350 350 349 349 347 348 345 345 345
319 322 322 321 317 317 305 304 303 304 306 310 307 307 312 312 312 313 314 314 317 317 319 315 317 316 311 315 322 325 331 333 332 338 342 345 349 351 351 349 346 343 343 345 348 348 352 357 356 355 355 355 354 354 354 353 353 353 353 352 352 353 353 353 353 353 353 352 352 352 351 351 350 350 350 350 349 349 349 349 349 349 349 349 349 350 350 351 350 349 349 348 347 345 344 344 343
324 315 316 310 307 307 303 303 304 307 307 311 311 309 312 312 314 313 314 314 315 312 315 316 316 313 312 319 315 324 329 335 337 342 345 346 348 350 350 348 345 342 342 346 348 348 358 356 355 355 355 355 355 354 353 353 352 353 353 353 353 353 353 354 353 353 353 353 353 352 351 350 350 350 350 350 350 349 349 349 349 349 349 350 350 351 350 350 348 346 345 345 345 344 343 342 342
319 316 318 311 304 306 302 301 303 308 308 311 311 313 320 314 315 314 313 315 313 314 313 314 314 310 311 314 319 326 327 333 339 345 346 347 347 351 350 349 344 342 342 345 348 352 353 356 355 355 354 355 354 354 353 352 353 353 353 353 353 353 353 353 353 353 353 353 353 352 351 351 350 350 350 350 350 349 349 349 350 351 351 351 350 350 349 348 347 345 344 343 343 344 343 342 341
314 315 309 308 309 301 301 302 302 305 306 310 309 311 312 317 315 314 312 311 312 313 314 316 315 310 313 310 321 327 331 335 338 340 345 347 349 353 350 348 346 343 343 346 350 350 350 357 355 355 354 354 354 353 353 352 353 353 353 353 353 353 353 353 353 353 353 353 353 352 351 351 350 350 350 350 350 350 351 351 352 352 352 351 350 350 349 347 346 345 345 345 343 342 341 341 340
307 314 314 306 303 301 300 301 304 307 307 310 310 313 314 315 314 313 313 312 314 312 313 315 311 311 311 313 322 333 335 340 337 338 344 348 351 350 349 349 346 344 343 348 349 347 351 352 356 355 354 353 353 353 352 353 353 354 354 354 354 353 354 353 353 353 353 353 353 352 352 351 351 350 350 350 351 351 350 351 352 352 352 350 350 349 349 347 346 346 345 344 342 342 340 340 339
306 307 308 301 301 302 303 302 304 306 309 309 308 312 315 313 314 311 312 310 311 311 310 312 309 313 309 315 323 330 333 335 340 342 346 353 351 352 350 347 346 344 345 349 349 347 348 351 352 354 354 354 353 353 353 353 353 354 354 354 353 353 353 353 353 353 353 352 352 352 352 351 350 350 350 351 351 351 351 352 353 352 351 351 350 349 348 347 344 343 343 342 341 340 339 338 338
307 308 306 302 301 303 305 304 304 304 305 307 308 312 315 313 311 312 312 312 311 310 311 314 314 313 306 309 327 329 329 336 342 347 349 348 347 346 345 345 341 342 346 349 346 345 346 348 348 350 352 353 353 353 353 353 354 354 354 353 353 353 353 352 352 352 352 352 352 352 352 351 350 350 350 350 351 351 351 352 352 352 351 350 350 348 347 345 344 342 341 341 340 339 338 338 338
308 309 307 301 306 302 301 303 304 302 303 307 312 313 314 312 313 313 312 309 309 308 314 316 314 312 308 310 323 324 329 335 340 344 348 348 346 344 343 343 342 342 345 347 345 344 344 343 348 348 350 351 350 352 353 353 354 354 353 353 353 352 352 352 352 352 351 351 351 351 352 352 351 350 350 350 350 351 351 352 352 351 351 350 349 348 346 345 344 342 341 340 339 338 338 339 338
308 312 307 304 303 304 304 300 302 302 302 308 310 312 312 314 314 312 311 308 309 314 316 318 315 310 307 309 317 324 329 339 337 343 345 344 343 341 342 343 344 344 345 347 345 343 342 343 343 348 348 348 350 351 351 353 354 354 353 353 352 352 352 351 351 351 351 351 351 351 352 351 350 350 350 350 350 351 351 351 351 351 350 350 349 348 347 345 343 342 341 340 340 339 339 339 339
310 310 307 302 301 302 304 303 304 302 302 308 311 312 311 313 314 311 312 311 311 315 314 309 314 309 311 309 311 328 330 339 341 343 344 343 341 340 340 340 344 342 341 345 340 343 343 343 343 346 345 346 347 348 349 351 352 353 353 353 352 351 350 350 350 350 351 351 351 351 351 350 349 348 350 349 350 350 351 350 351 351 350 350 348 348 346 344 343 342 340 339 338 338 339 339 339
311 309 302 301 298 301 303 303 304 300 306 307 310 310 308 308 312 312 314 313 309 309 311 312 311 314 311 312 315 332 332 337 342 342 342 342 339 335 334 336 339 339 342 339 338 338 343 343 343 342 343 343 346 348 348 350 350 352 351 351 351 350 350 350 349 349 349 350 349 349 349 347 347 347 347 347 350 348 349 351 351 350 350 349 348 348 346 344 343 342 340 340 339 339 338 338 337
309 302 300 299 301 301 305 304 305 308 304 307 309 310 309 307 310 311 312 310 309 309 308 311 313 312 313 314 315 322 333 332 335 339 337 338 341 334 330 331 333 335 335 339 342 334 337 342 342 343 343 344 345 346 347 349 349 349 348 349 348 348 348 349 347 346 349 347 348 347 347 347 346 347 347 349 347 347 349 351 351 350 350 348 348 347 346 344 343 342 341 340 339 339 339 335 337
304 302 301 298 302 305 308 307 308 306 306 309 309 309 309 308 308 310 307 307 307 306 307 309 308 310 312 313 314 314 315 324 331 330 330 331 336 332 329 329 329 332 334 335 336 342 336 339 339 341 342 342 343 344 345 348 347 347 346 346 345 347 347 346 346 346 345 345 346 346 347 346 345 345 346 347 347 348 349 350 351 350 349 348 347 347 346 345 344 343 341 341 340 340 338 335 335
306 303 299 300 305 306 308 309 308 309 308 308 307 308 308 309 309 311 307 306 307 305 305 308 308 308 310 312 313 314 319 323 329 328 331 332 332 329 328 329 329 332 333 336 336 338 342 342 336 339 340 342 343 342 345 347 346 345 346 344 344 345 346 345 346 345 345 344 344 345 346 346 345 347 348 349 349 346 348 350 350 349 348 348 347 347 346 345 344 343 342 341 340 338 338 345 340
306 302 299 302 306 304 306 308 309 309 309 308 307 307 307 308 309 308 307 304 304 305 308 307 307 309 311 313 314 317 326 325 333 332 329 328 329 332 332 332 331 331 336 337 334 336 337 336 339 343 340 342 341 343 344 344 344 344 344 343 343 344 345 345 344 345 346 345 342 347 346 346 345 346 346 346 345 345 346 346 347 346 346 346 348 344 342 343 342 340 340 340 339 337 339 343 339
305 302 304 304 306 304 307 308 308 307 309 308 307 305 305 310 309 307 306 302 302 306 309 309 309 310 310 310 311 315 325 328 331 329 330 330 328 328 330 330 332 333 333 335 333 335 340 341 341 342 342 342 341 342 343 343 345 343 343 343 344 344 344 343 341 343 345 346 346 347 345 347 346 345 345 346 345 344 343 343 344 345 346 345 347 342 341 339 340 340 339 339 341 343 341 342 339
299 304 304 305 306 304 306 307 306 306 306 305 304 306 308 306 305 307 306 305 307 310 310 310 310 311 311 311 312 316 325 329 331 329 332 330 328 329 329 330 329 329 333 333 335 335 337 343 344 342 344 340 341 342 342 342 342 343 344 343 343 342 341 341 340 343 344 345 346 345 345 346 345 344 344 346 345 345 343 343 343 344 343 344 346 342 340 339 342 341 341 342 343 342 340 339 341
303 300 304 305 306 305 306 306 306 305 304 304 306 308 304 304 301 307 305 307 309 309 310 310 310 311 311 310 312 316 326 329 330 333 335 332 330 330 331 330 330 331 332 333 335 337 338 341 343 343 344 344 345 340 341 340 341 341 343 344 343 339 341 340 339 343 344 344 345 345 347 346 344 344 346 345 345 345 344 344 344 344 344 344 346 344 341 342 342 344 343 340 339 337 336 337 337
301 300 303 304 304 304 304 304 305 304 304 305 305 303 303 304 304 306 304 307 309 309 310 310 310 310 310 313 312 316 330 329 329 331 332 331 331 331 332 332 331 331 331 334 335 336 339 342 344 341 339 339 343 339 339 339 340 340 342 342 341 340 340 340 342 345 343 343 347 347 347 345 344 344 345 346 346 345 346 346 345 345 345 344 346 349 343 344 344 343 341 339 338 338 340 339 338
302 301 303 303 302 303 304 304 303 303 303 304 301 301 303 304 306 303 305 306 308 309 309 309 309 308 308 309 311 314 325 331 331 331 331 331 330 329 330 331 331 330 333 334 333 336 340 343 342 342 340 339 339 341 338 338 338 339 339 340 341 339 340 341 344 344 343 343 345 347 347 347 344 344 345 345 344 346 347 347 348 344 345 347 345 344 344 343 341 342 342 339 336 338 338 339 339
303 302 302 302 302 302 303 301 302 303 302 303 300 300 301 304 303 298 305 306 308 307 307 308 308 307 308 310 317 313 331 332 330 331 332 331 329 328 330 332 332 332 334 333 334 336 337 339 341 344 341 343 345 342 338 338 339 338 338 339 341 339 341 343 343 344 342 345 344 347 346 347 345 344 344 343 344 345 345 344 345 345 346 346 347 349 350 346 346 347 347 343 341 339 339 340 339
303 303 302 302 302 302 302 302 301 303 301 303 302 300 302 303 302 299 304 307 308 306 306 307 307 307 308 309 309 328 334 335 333 333 331 330 329 329 329 331 332 332 333 333 334 335 336 337 340 343 340 343 342 339 342 339 338 338 338 338 338 338 343 343 341 343 342 344 345 346 348 347 347 345 343 342 343 343 343 343 345 344 343 346 347 347 349 346 348 342 343 349 346 342 341 340 340
303 302 297 299 301 299 301 300 301 302 300 303 303 299 298 300 299 303 305 308 308 306 306 306 306 307 308 308 308 314 330 334 334 332 332 331 332 332 330 333 333 331 334 337 336 336 335 337 339 341 341 343 341 339 342 348 341 338 338 338 338 340 341 343 340 341 343 344 346 346 351 348 347 346 350 343 343 344 345 346 344 344 344 345 347 345 344 348 347 349 348 346 346 345 344 343 341
302 301 298 297 297 297 301 302 302 301 301 303 302 290 294 298 301 303 307 306 306 305 304 305 306 306 306 307 309 317 328 334 335 332 332 333 333 334 333 334 334 333 333 338 338 336 339 340 342 341 342 343 342 344 343 346 344 347 339 341 339 342 340 343 342 341 343 344 344 351 349 351 352 346 348 346 344 344 345 345 344 346 346 345 347 351 349 351 347 345 346 348 346 344 340 342 344
296 299 299 294 293 293 300 301 301 298 302 302 302 291 294 299 301 306 307 307 306 304 304 305 305 307 312 311 311 314 323 327 336 336 335 336 336 335 336 336 336 337 336 338 337 338 340 340 342 342 345 345 346 346 345 347 352 347 348 354 338 343 340 341 342 343 342 343 343 349 350 351 351 347 352 344 345 343 344 346 344 344 347 348 346 349 347 349 346 343 342 341 346 351 339 339 339
298 294 292 295 293 295 299 302 301 297 300 303 299 292 295 301 304 306 307 307 307 305 305 307 309 310 313 314 314 315 319 324 330 337 338 336 337 335 336 336 337 337 337 339 340 340 340 341 342 341 344 345 345 339 345 348 346 345 348 350 344 350 339 339 342 341 341 344 343 346 348 347 352 345 350 347 348 340 342 345 345 346 347 347 347 348 344 343 342 344 342 346 341 338 338 340 343
298 294 292 293 294 295 296 300 302 302 301 302 299 292 299 300 306 307 308 307 306 305 306 309 309 311 313 313 313 316 318 320 322 331 337 339 338 337 336 336 336 337 339 340 339 339 340 341 342 342 341 342 337 339 341 337 339 337 337 339 349 344 342 346 338 341 341 344 345 344 347 344 350 343 347 349 351 340 339 341 343 346 346 348 349 348 348 343 341 337 344 342 344 342 338 335 337
294 296 292 295 294 295 293 299 302 303 301 297 300 295 296 302 305 306 306 306 306 306 307 308 310 311 313 313 315 316 319 320 321 323 327 334 337 339 338 337 336 337 338 340 338 336 336 338 340 341 341 340 337 339 340 336 338 337 338 340 342 346 345 342 343 339 340 342 344 344 346 344 348 341 344 347 350 347 337 338 342 343 341 348 347 345 342 345 345 341 342 345 342 339 336 335 335
293 294 293 293 296 297 295 295 299 301 300 297 297 296 297 301 305 305 306 307 305 306 306 308 309 312 313 313 315 316 318 320 323 324 324 330 334 339 338 337 336 336 337 338 339 338 339 339 340 340 339 340 338 339 340 336 336 338 339 340 341 343 344 343 342 339 338 340 342 345 346 345 347 344 344 344 346 348 341 338 342 341 341 346 345 343 341 343 343 345 344 343 347 342 340 340 337
296 297 295 295 294 294 294 298 301 301 297 296 296 294 296 301 302 305 306 306 306 307 308 308 311 312 313 313 315 316 318 320 324 327 329 331 333 339 338 337 337 337 338 338 338 339 339 338 337 337 339 340 337 336 334 336 336 338 338 340 341 341 344 342 338 339 340 339 340 344 346 346 346 347 346 345 348 346 350 344 343 341 341 342 343 340 338 337 343 340 344 342 341 340 338 337 342
299 298 297 295 295 296 299 299 301 302 298 297 297 297 297 300 302 304 305 306 305 305 308 307 310 312 312 313 314 315 318 319 323 325 329 332 335 339 337 338 337 337 337 339 338 337 336 336 333 331 336 337 334 332 333 334 333 334 338 338 338 340 340 342 339 338 338 339 338 343 345 343 344 347 347 346 345 346 347 351 345 342 342 338 342 340 342 339 342 343 342 343 341 338 338 335 341
297 296 295 294 295 293 298 299 301 302 297 296 298 297 298 300 303 304 305 305 303 306 308 308 310 312 312 313 313 315 317 320 322 325 327 330 332 334 336 335 338 334 335 337 335 336 335 336 333 333 335 336 335 334 334 335 336 337 338 335 337 342 339 338 338 337 339 342 344 345 347 344 344 346 346 346 345 344 343 349 346 343 343 341 345 342 343 342 343 341 341 339 341 338 335 335 336
298 295 294 294 295 297 300 299 301 301 298 295 297 295 297 300 302 304 304 303 307 308 308 309 310 311 312 312 312 314 317 318 320 321 324 325 329 331 333 334 333 333 333 333 333 331 330 333 336 333 335 335 334 334 335 333 336 337 336 334 335 338 341 340 341 340 338 341 348 346 347 345 346 344 345 346 345 344 344 347 346 345 342 342 343 341 341 340 342 343 340 339 337 336 338 340 336
296 296 293 292 296 294 292 297 300 299 298 295 297 295 297 300 302 303 304 304 306 309 310 311 312 310 310 311 313 314 315 316 317 319 321 323 327 328 330 331 331 332 333 330 331 330 332 333 334 334 333 336 333 334 334 335 336 338 338 340 338 337 336 340 339 341 340 342 343 345 346 346 344 343 342 345 344 345 344 344 346 347 344 342 343 341 341 340 342 344 342 340 340 335 330 332 335
297 296 295 294 295 296 295 295 298 299 300 300 297 294 294 298 298 300 303 305 307 307 308 310 310 311 312 313 314 315 315 317 317 318 320 322 323 326 327 329 331 329 330 329 329 329 330 330 333 335 334 335 334 334 337 336 336 336 337 337 338 337 338 335 335 335 337 337 342 344 344 346 344 343 342 343 341 344 344 342 342 344 346 343 343 341 342 341 339 341 343 342 339 338 336 334 335
296 298 298 297 297 296 297 298 296 294 293 297 295 288 289 295 297 299 302 303 303 307 307 306 309 310 311 310 312 314 315 317 317 317 318 321 322 324 326 327 328 330 331 330 331 329 330 331 333 335 335 335 334 335 336 336 335 335 334 332 331 333 330 331 330 332 332 337 339 343 343 345 344 344 343 343 341 344 343 344 344 343 346 347 345 343 343 343 342 340 341 344 342 343 340 339 335
293 296 300 300 299 298 297 296 295 290 288 295 299 288 286 295 294 298 301 301 301 306 307 306 309 311 310 310 310 312 312 314 317 317 318 319 320 322 324 325 326 326 329 331 332 332 331 332 334 333 333 334 336 335 335 335 334 336 334 333 332 332 331 333 336 337 335 339 343 343 343 344 343 343 342 341 342 344 345 345 346 345 345 347 346 346 345 344 342 340 342 342 343 344 343 336 336
292 300 300 300 298 297 296 296 295 293 298 298 299 295 288 288 295 298 301 300 301 302 302 303 307 308 307 309 311 311 312 314 314 316 318 319 320 321 322 325 326 327 329 331 330 331 331 332 333 333 334 334 335 335 336 338 335 335 335 334 332 330 329 330 333 332 336 341 343 343 344 343 342 341 342 340 340 343 344 345 345 345 344 345 344 344 343 343 343 343 346 345 347 344 342 338 336
297 300 301 298 298 298 297 296 294 295 293 290 294 297 289 289 296 301 301 297 299 299 301 301 304 305 306 309 309 310 313 313 314 315 316 318 320 322 323 325 327 327 328 328 329 329 331 331 331 332 332 333 336 337 336 337 336 334 334 333 331 332 332 332 334 334 334 337 341 343 342 340 341 340 340 341 339 339 342 344 343 343 343 342 342 342 343 343 343 343 343 344 346 345 345 344 340
300 301 302 300 299 299 298 295 294 294 291 286 291 294 288 288 295 296 298 298 297 298 301 303 304 305 307 307 309 310 311 313 314 316 317 319 320 322 324 326 326 326 328 329 329 329 330 332 332 332 331 333 333 334 337 334 335 333 331 331 331 331 332 334 338 335 334 339 341 342 342 341 340 342 341 341 340 339 340 342 343 342 343 342 341 340 341 341 342 343 346 346 345 343 346 344 339
303 301 298 298 297 296 297 296 294 292 285 288 293 294 292 284 292 294 294 295 299 300 302 304 305 306 306 309 309 310 311 312 312 315 317 318 320 322 323 323 325 326 328 328 329 330 329 329 332 331 331 333 334 334 334 334 334 332 331 332 331 332 333 336 339 336 340 341 340 340 344 343 345 344 346 344 344 342 341 341 342 342 344 344 343 340 341 340 341 345 347 348 346 344 346 341 339
301 297 296 295 294 296 294 293 294 285 283 290 294 293 295 283 289 295 300 301 302 302 301 303 304 305 306 307 308 310 310 311 313 314 315 317 318 319 321 320 322 324 326 326 328 329 331 330 330 330 331 331 332 334 333 332 334 332 333 333 334 337 339 339 339 338 340 342 343 342 344 347 347 347 347 347 347 346 346 345 343 342 342 344 343 341 341 342 342 345 347 348 346 347 346 341 339
299 296 294 289 287 288 284 288 284 284 282 290 294 294 289 288 293 298 300 301 303 305 305 304 304 305 306 307 308 310 310 312 312 312 314 315 316 317 317 319 321 322 323 325 326 328 328 329 330 331 331 333 332 335 332 332 332 332 333 332 333 331 332 338 340 341 341 341 341 342 342 342 343 342 344 344 346 347 347 347 345 342 342 343 344 341 340 342 343 344 345 346 347 345 344 343 340
297 294 292 287 282 282 279 283 286 285 290 294 292 295 288 292 295 300 300 302 305 305 306 306 306 306 306 307 308 308 310 311 312 313 313 313 315 316 317 318 319 321 322 324 326 327 327 328 329 329 329 333 335 335 334 334 333 331 333 334 332 333 333 333 336 340 340 342 341 341 343 343 343 342 343 345 346 346 346 346 347 346 346 348 346 344 343 343 348 345 346 346 344 344 345 346 343
297 298 294 290 287 283 279 282 279 282 284 289 294 289 285 286 290 300 302 303 304 307 307 307 308 308 308 308 308 308 308 310 311 312 312 312 315 316 317 318 320 321 322 324 324 325 327 327 329 328 328 332 334 335 336 335 336 336 335 336 333 334 333 331 333 335 335 335 338 338 337 338 338 341 344 348 347 348 348 349 345 341 341 342 344 347 347 347 347 347 345 346 346 346 345 346 344
299 299 298 292 289 294 284 286 286 285 284 285 288 286 293 291 299 302 303 303 305 305 306 307 306 307 307 307 307 308 308 308 310 310 311 313 314 316 317 318 320 320 321 323 323 325 326 327 327 328 327 329 332 333 333 334 335 335 334 332 333 334 332 332 333 334 335 336 335 336 336 336 335 337 339 342 346 347 345 341 338 338 336 336 335 335 337 339 345 347 347 347 345 348 347 347 345
297 296 290 294 300 294 288 289 292 290 287 283 290 290 293 297 300 301 302 301 303 304 305 305 305 306 307 306 307 307 307 307 309 310 310 312 313 315 316 317 319 320 321 322 322 324 324 326 327 327 327 329 330 330 332 333 334 335 334 333 335 334 333 331 332 333 334 333 333 334 335 336 337 339 342 344 342 339 342 338 337 336 336 337 337 336 336 337 342 345 345 346 346 347 346 346 346
297 291 295 300 301 298 291 283 285 284 281 283 289 286 288 289 285 298 299 299 300 302 303 304 304 305 304 305 306 306 307 308 309 309 311 312 313 314 315 317 317 318 320 321 322 325 327 327 326 326 326 327 328 329 330 331 331 332 333 334 333 335 335 334 334 334 334 333 333 333 334 334 333 336 337 337 336 336 338 338 337 336 337 336 336 336 337 339 343 345 344 344 345 343 341 339 343
298 296 303 293 286 285 292 287 280 280 280 282 286 287 288 289 286 293 295 296 298 300 301 302 302 303 303 304 305 307 307 307 307 308 309 311 312 314 315 316 317 318 319 319 320 323 323 325 326 327 325 326 328 329 330 331 332 331 333 334 335 335 336 336 335 334 333 332 332 334 333 334 334 336 337 338 338 340 338 340 340 338 337 337 338 338 339 341 343 340 342 344 342 337 336 337 340
303 303 298 300 295 290 287 287 289 287 281 281 283 286 284 293 293 296 296 298 300 300 299 300 301 302 303 304 305 306 306 306 307 308 310 310 311 312 312 315 314 316 317 318 320 321 321 324 323 325 327 326 326 328 328 328 330 331 332 335 335 334 335 337 337 332 331 330 331 333 334 334 335 336 335 336 337 336 335 334 336 338 337 337 339 341 342 342 343 344 345 344 342 339 338 335 338
295 295 293 295 295 298 295 294 289 285 282 282 281 281 286 294 299 298 298 299 300 300 299 301 301 302 303 304 305 305 307 307 307 308 309 310 311 312 313 315 313 315 316 318 318 319 319 322 322 320 321 322 324 326 327 327 328 329 331 331 333 335 336 336 336 335 333 333 333 333 333 334 335 334 334 335 335 335 334 334 334 337 337 337 338 339 340 341 344 343 343 343 343 342 341 338 336
296 294 290 294 291 288 285 284 294 291 286 282 282 280 287 297 302 301 299 301 301 302 302 301 302 302 302 305 306 306 306 307 308 308 309 309 310 311 311 312 313 313 314 314 315 318 318 318 321 320 318 318 320 322 325 326 328 328 328 329 330 331 334 336 335 333 332 333 334 333 334 334 333 334 335 334 334 334 334 334 334 334 336 337 337 338 338 340 340 342 342 343 341 342 339 338 337
Wind_Speed
7 7 7 8 7 8 8 5 6 6 7 11 10 10 10 11 11 13 10 8 9 10 6 7 9 6 5 3 7 12 12 8 8 4 1 3 5 10 9 7 11 13 14 12 11 12 13 14 17 18 20 20 19 21 21 19 18 17 17 17 17 17 17 17 17 15 15 16 16 16 16 16 16 16 15 14 14 13 14 14 14 13 13 14 14 14 15 15 16 16 16 17 16 15 15 14 14
7 6 7 7 8 6 6 6 6 8 8 11 11 12 11 12 8 10 13 10 9 4 2 8 3 2 2 3 4 6 12 10 9 8 6 7 9 7 7 7 12 14 13 13 12 11 12 14 15 17 19 19 19 19 20 20 19 18 17 16 17 17 16 17 16 16 16 16 16 16 16 16 16 15 15 14 14 13 13 14 14 14 13 14 14 15 15 15 16 16 16 16 15 15 15 14 14
8 7 6 7 8 8 6 5 9 9 10 11 9 11 9 8 9 11 10 5 2 2 5 11 4 2 4 2 6 9 5 9 11 11 7 11 12 7 7 9 11 14 15 11 11 11 11 12 15 17 18 19 19 19 19 21 20 18 18 17 17 17 17 16 16 16 16 16 16 16 16 16 16 15 15 15 14 13 13 13 14 14 14 15 15 15 15 15 15 15 15 15 15 15 14 14 12
9 9 9 7 6 7 7 6 9 11 10 10 7 12 11 7 7 14 8 5 4 3 4 7 5 4 6 3 5 9 8 6 11 11 7 8 6 10 10 11 11 13 12 11 12 11 11 14 15 16 18 19 18 19 20 21 20 19 18 17 17 18 17 16 17 16 16 16 16 16 16 16 15 15 15 15 14 13 12 13 14 15 16 16 16 16 15 15 15 15 15 14 14 14 14 13 12
8 8 9 9 7 7 8 8 10 10 13 10 8 6 8 12 4 7 6 6 6 2 5 1 3 8 2 4 4 2 6 13 12 8 8 8 10 11 14 14 12 12 13 13 12 12 13 17 16 15 18 19 18 18 18 21 21 20 19 18 18 17 17 16 16 16 16 16 16 16 16 15 15 15 15 14 14 13 12 12 13 16 16 16 16 15 15 14 14 14 14 13 13 14 13 11 11
9 9 9 8 8 5 7 9 10 12 12 10 10 6 8 11 1 2 6 11 10 4 6 10 6 1 4 5 2 8 9 7 9 8 8 8 12 13 14 12 12 14 15 14 13 11 14 17 16 16 16 16 17 18 17 19 22 22 20 19 18 17 16 16 16 16 16 16 16 16 15 15 15 15 15 14 14 13 13 12 13 14 15 16 15 15 15 14 14 14 13 13 13 13 11 10 10
6 7 7 8 8 7 9 10 11 11 10 11 11 10 3 5 2 7 9 7 20 6 7 3 4 1 7 1 13 9 11 15 8 10 9 12 14 14 15 11 11 12 16 14 13 14 18 19 18 17 17 17 17 18 17 17 19 20 20 19 19 17 16 16 15 16 15 15 16 16 15 15 15 14 14 14 14 13 13 13 14 14 14 14 15 15 14 14 14 13 13 13 13 12 11 10 10
9 9 5 8 7 7 11 11 12 10 10 11 9 8 9 8 3 8 10 19 10 5 7 9 7 4 6 3 4 10 14 10 12 13 14 13 14 14 14 13 12 13 16 13 14 12 20 19 19 18 19 19 18 18 17 17 17 18 19 18 18 17 17 16 16 16 16 16 16 15 15 15 15 15 14 14 13 13 13 14 14 14 14 14 14 14 14 14 13 13 12 12 12 12 11 10 9
8 9 7 9 10 7 10 12 12 13 13 12 11 7 9 8 9 4 9 8 8 7 8 6 10 8 3 6 11 11 10 12 13 14 14 15 15 15 10 11 13 12 14 14 13 15 18 18 18 19 17 18 18 19 18 16 16 18 18 18 18 17 17 17 16 16 15 15 15 15 15 15 15 15 15 14 13 13 13 14 14 14 14 14 14 14 14 14 13 13 13 12 12 12 10 9 9
8 8 7 7 7 11 11 11 12 10 12 12 12 8 8 12 4 7 7 8 7 4 5 4 8 6 8 7 13 11 8 11 13 13 12 15 16 12 13 12 13 15 14 15 15 16 16 20 19 19 18 17 17 17 18 15 15 16 16 16 16 17 16 16 16 15 15 15 15 15 15 14 15 15 14 14 13 13 13 14 14 14 14 14 14 14 14 14 13 13 13 12 12 11 10 9 9
8 8 8 9 10 10 11 10 11 9 11 12 11 9 6 3 10 11 8 8 7 4 5 7 0 9 10 1 10 7 12 9 12 14 14 15 16 14 12 10 12 14 14 17 17 16 16 17 21 19 19 18 16 15 16 16 13 12 15 15 14 14 14 15 15 15 14 14 14 15 14 14 14 14 14 14 13 13 13 13 14 14 14 14 14 14 14 14 13 13 12 12 12 11 10 9 9
9 8 8 9 10 10 10 11 10 9 9 11 10 4 4 10 3 4 5 8 4 7 9 6 3 5 7 7 6 9 12 9 10 10 11 10 9 9 8 7 9 6 14 17 18 15 17 17 16 19 21 19 16 16 14 15 15 12 12 14 14 14 14 14 14 13 12 13 13 14 14 14 14 14 14 14 13 13 12 13 13 14 14 14 14 14 14 14 13 12 12 12 12 11 10 10 9
10 8 9 9 9 10 10 12 10 9 9 9 11 5 3 5 4 9 9 7 8 9 7 5 9 0 1 4 11 10 9 12 12 13 10 10 9 7 8 5 9 11 3 16 17 18 19 16 16 16 16 21 18 17 15 15 14 14 12 12 14 16 16 16 15 14 13 13 13 14 14 14 14 14 14 13 13 12 12 12 13 13 13 14 14 14 14 14 13 12 11 11 11 11 11 9 8
9 9 8 10 9 12 12 11 9 10 7 9 1 3 5 9 9 3 6 7 10 11 1 7 1 7 8 6 12 8 7 11 14 14 10 9 8 8 9 6 6 6 7 7 15 17 17 17 15 16 17 14 14 15 16 18 17 15 15 13 15 16 17 16 16 15 14 14 14 14 14 14 15 14 14 13 13 12 12 12 13 13 13 13 14 14 14 14 13 12 10 10 11 11 10 8 6
10 7 9 9 10 10 11 11 10 8 9 6 4 6 5 12 6 1 4 8 9 7 5 12 3 6 3 1 7 8 9 15 13 12 15 11 10 10 9 7 8 5 10 4 11 14 15 15 15 15 13 14 14 11 11 14 18 17 16 16 16 16 16 16 16 16 14 14 15 15 14 14 14 15 14 13 12 12 12 12 12 12 13 13 13 14 14 14 13 12 10 9 10 10 9 7 4
9 8 8 9 10 10 9 11 11 11 4 5 2 8 5 8 3 10 5 3 9 11 4 5 9 1 5 9 4 14 15 17 13 13 15 16 13 11 10 9 8 8 10 5 9 12 12 14 13 13 13 14 12 11 11 12 16 19 17 17 17 16 16 15 17 16 14 14 14 15 14 12 13 12 15 12 13 13 12 10 12 12 12 13 13 14 14 14 14 12 11 10 9 9 8 5 4
8 8 9 9 11 10 9 10 8 8 5 2 1 5 5 3 1 9 6 5 6 12 6 4 9 7 7 5 4 22 14 15 12 14 15 13 12 9 7 7 6 7 2 10 6 9 14 13 15 11 13 15 13 12 11 12 14 18 16 18 18 16 15 15 15 16 14 13 14 14 14 10 9 8 10 9 13 9 11 12 12 12 12 12 13 13 14 14 14 13 11 10 9 9 7 7 5
8 9 9 10 10 12 9 11 8 6 10 5 11 9 3 5 8 5 7 12 9 10 11 10 11 5 8 11 5 6 17 15 15 14 11 10 12 11 10 6 3 6 4 4 9 10 11 14 14 14 13 14 14 10 10 9 11 13 12 11 11 11 12 13 11 10 12 9 13 11 7 7 7 8 7 10 7 9 10 13 12 13 12 12 12 13 14 14 14 12 11 10 9 9 10 4 4
9 8 9 11 9 9 10 12 8 11 9 11 5 7 5 6 6 9 7 3 7 8 10 10 11 10 8 10 7 6 10 12 11 9 13 13 11 13 9 9 7 6 6 4 4 8 7 9 11 14 14 14 15 12 10 9 12 10 12 11 9 11 10 10 8 10 9 10 11 8 6 5 7 7 6 8 7 11 10 12 13 13 13 13 12 13 13 14 13 12 12 11 10 11 6 4 3
10 9 10 11 11 14 12 14 9 6 12 12 8 4 3 9 9 3 5 5 6 7 7 8 11 8 8 7 9 8 7 20 29 25 22 20 14 12 10 10 8 7 9 6 8 1 6 4 6 10 13 14 12 9 10 9 9 9 8 8 7 7 7 8 8 8 8 10 10 7 6 7 6 5 11 13 12 8 9 12 13 13 13 13 13 9 11 12 13 12 11 10 7 5 3 2 2
7 11 10 9 12 12 8 15 13 4 5 9 7 5 3 5 7 5 10 6 9 9 10 9 11 10 7 6 2 11 22 20 16 18 21 20 14 9 10 8 5 4 2 3 8 8 5 10 7 4 10 11 11 9 11 10 10 8 8 8 8 7 7 7 7 7 7 9 9 6 8 6 6 6 7 7 6 7 7 6 7 7 7 8 11 5 6 7 7 7 6 6 5 5 5 5 3
8 11 13 15 15 17 6 8 11 14 10 7 8 8 8 4 6 9 10 10 7 6 6 7 8 6 9 13 16 12 21 14 18 14 14 17 18 15 11 11 8 7 2 3 4 10 4 5 10 5 2 7 6 9 9 10 10 9 9 9 8 7 8 7 7 7 7 7 7 6 7 6 7 7 7 7 7 7 7 6 6 6 7 7 7 6 5 6 6 7 7 7 6 6 4 3 5
10 9 10 12 15 11 8 8 9 7 8 8 8 9 9 8 10 8 5 8 8 13 13 10 9 8 9 10 11 10 19 16 11 11 12 12 12 10 11 12 14 12 6 4 2 3 11 3 5 6 5 3 7 6 8 8 7 8 8 9 9 9 7 7 7 7 7 8 7 6 5 6 7 8 8 8 8 7 7 7 6 6 7 6 6 6 6 6 6 6 7 7 5 6 5 4 3
9 9 10 13 15 12 6 10 8 2 9 9 9 11 11 9 9 8 11 7 10 11 13 10 9 6 6 9 9 8 16 14 9 8 13 13 9 8 7 6 3 8 10 13 2 3 7 8 3 6 10 4 6 8 7 9 7 8 8 9 9 9 8 7 7 6 7 8 8 7 6 7 7 8 7 6 7 6 7 7 6 6 6 6 6 4 5 5 4 3 3 6 6 4 5 5 6
7 11 11 11 7 9 8 8 7 5 7 8 7 11 11 11 9 9 8 8 6 6 7 8 8 8 7 5 7 5 18 14 11 12 12 10 11 10 8 7 8 7 8 10 9 5 4 4 7 5 11 11 8 9 9 9 8 8 9 9 8 10 7 7 7 5 6 7 8 10 7 8 8 7 7 6 6 6 6 5 5 5 6 5 4 2 3 4 3 4 5 3 4 3 3 4 5
9 13 7 4 3 6 8 10 11 9 6 7 11 10 11 10 8 10 11 14 7 7 10 8 7 8 10 7 5 7 11 16 13 11 11 10 12 14 10 8 9 10 11 14 12 8 3 2 5 4 6 6 7 5 9 8 8 9 9 8 6 9 6 6 7 5 6 5 7 7 7 6 7 8 7 5 6 5 4 2 2 5 4 3 4 4 4 5 5 5 4 3 4 4 4 4 5
5 11 1 8 9 1 4 8 8 9 9 8 9 9 10 9 6 8 12 14 13 12 5 6 9 9 8 7 5 4 19 16 14 11 10 10 9 11 9 6 7 10 11 15 17 15 10 7 7 8 8 8 5 6 4 5 5 7 8 8 5 8 6 6 6 6 6 4 6 7 7 5 7 8 8 7 6 6 5 6 5 5 5 4 4 2 3 3 3 2 2 3 3 3 4 3 5
7 7 4 7 10 6 8 5 10 5 8 8 7 9 7 11 9 9 6 3 8 6 6 7 7 7 6 8 5 12 14 15 11 10 12 9 8 9 11 7 5 6 10 13 14 17 18 16 11 11 12 10 8 9 6 6 5 7 7 8 6 7 5 4 6 6 6 4 5 5 5 5 4 6 7 8 7 7 7 8 5 6 5 4 4 3 2 3 3 3 3 2 3 3 3 4 3
8 8 8 9 10 10 10 8 9 6 8 7 6 9 11 7 9 10 2 6 5 5 6 7 9 8 7 5 6 12 16 14 11 10 8 7 7 9 11 7 5 7 5 4 6 10 22 23 18 17 15 12 12 11 8 4 5 6 6 6 7 7 6 4 5 6 4 5 4 4 4 4 4 5 4 6 6 4 4 4 5 5 5 5 4 5 5 3 3 2 3 3 2 3 3 3 4
8 6 8 9 10 10 11 10 4 4 2 6 1 6 8 12 11 6 8 1 2 4 6 7 6 7 9 6 10 13 15 13 10 8 9 7 7 9 10 8 7 6 5 2 2 4 6 3 4 6 11 13 13 10 10 6 7 6 6 5 7 5 6 4 4 6 4 5 5 3 3 3 2 5 3 5 4 4 4 4 3 4 4 5 4 2 3 2 3 3 2 2 2 2 3 2 1
7 8 7 8 9 10 13 9 8 9 9 7 4 8 9 12 10 8 3 4 5 7 5 7 7 2 12 9 3 7 16 13 13 9 8 7 6 6 8 9 8 6 5 3 3 4 3 3 3 4 4 7 10 10 9 7 4 6 3 1 8 4 5 5 4 5 5 6 6 3 3 3 2 3 2 5 3 4 4 3 5 4 4 4 5 3 3 3 3 3 4 3 2 1 3 3 2
7 7 8 8 9 8 16 11 10 7 11 8 7 7 4 11 9 1 1 3 4 5 6 6 8 9 8 9 11 8 11 14 9 10 7 7 6 5 5 8 9 8 8 7 6 6 8 7 7 7 6 6 2 7 4 6 5 5 4 2 4 1 6 5 3 5 4 6 6 5 5 4 2 4 3 3 3 4 3 2 3 4 4 3 4 3 4 4 4 3 4 3 3 3 3 3 2
8 8 7 9 8 4 10 14 11 10 5 8 7 8 4 11 5 2 2 7 2 7 2 5 6 9 7 7 7 10 10 11 9 6 7 5 5 5 4 4 6 7 6 7 7 7 7 7 7 8 9 6 5 4 4 8 7 6 4 6 5 1 2 3 5 4 4 7 5 5 5 5 3 5 3 3 2 5 4 3 3 5 4 3 3 3 2 5 4 3 3 5 3 2 1 4 3
8 8 8 9 11 12 9 16 13 10 8 7 8 8 9 4 6 6 3 2 2 3 5 5 6 7 6 4 7 8 8 9 7 6 2 3 3 6 6 5 6 7 6 6 6 5 6 5 7 6 7 8 9 9 4 5 1 3 2 1 4 4 2 1 3 5 4 6 6 6 6 6 3 5 4 3 2 3 5 4 3 6 4 3 3 3 4 2 3 4 3 1 4 3 3 3 3
6 8 6 8 11 8 4 8 11 4 7 7 8 9 6 9 9 7 5 2 5 2 2 6 5 7 6 5 8 10 9 8 7 5 5 3 2 6 5 6 5 7 5 6 6 5 5 6 5 6 5 4 7 6 7 7 1 6 4 0 1 6 3 1 6 4 4 7 6 7 7 7 4 6 5 4 3 3 4 5 5 5 3 3 3 3 3 2 3 3 3 1 1 1 2 1 4
6 8 8 9 6 6 9 8 13 6 8 7 8 9 11 14 11 5 6 2 3 6 5 2 4 7 5 7 8 8 8 8 6 6 7 7 4 6 4 5 6 6 5 6 7 6 4 3 0 2 5 5 4 7 8 8 6 2 4 3 1 3 3 3 4 6 4 5 6 8 7 7 6 6 5 5 3 3 2 4 7 6 4 3 3 4 3 3 2 4 3 3 2 2 4 4 3
10 8 9 7 9 7 8 11 5 6 6 6 6 8 10 4 4 1 3 3 4 2 6 3 6 6 7 8 8 8 8 8 6 4 6 10 12 6 4 5 5 4 5 7 8 7 7 6 2 4 5 5 6 6 8 9 10 7 4 4 2 3 1 3 4 7 4 5 7 9 8 7 6 7 6 6 4 4 3 1 7 6 4 5 4 4 3 3 2 3 3 2 2 2 2 3 2
8 8 8 8 8 9 7 8 11 10 5 7 12 14 9 6 5 4 5 1 4 3 4 3 6 7 6 7 9 9 8 8 9 7 7 8 9 11 5 3 2 4 3 5 6 6 4 6 6 4 6 4 2 3 5 6 6 5 3 1 3 1 2 2 3 5 9 5 5 9 7 7 7 7 7 7 6 5 4 3 7 6 5 5 4 5 3 3 2 4 3 3 2 2 3 3 5
9 8 8 9 9 9 6 9 2 4 2 6 11 11 8 6 7 7 4 6 5 2 3 3 6 5 6 7 9 10 9 9 8 8 9 8 10 11 8 5 4 4 5 5 4 4 2 4 1 2 4 2 3 2 3 6 3 5 4 4 3 2 3 1 1 3 8 9 4 8 7 6 6 6 7 7 6 6 5 3 5 6 5 4 5 5 5 4 3 3 5 3 3 3 2 3 4
8 7 7 7 7 6 6 6 9 3 4 8 9 12 9 7 7 8 6 5 5 4 5 7 5 4 6 7 8 9 9 7 8 9 8 8 9 9 9 9 7 6 6 6 6 2 2 2 2 3 1 3 6 6 5 6 9 7 7 7 7 7 2 3 1 4 10 8 6 7 6 6 8 7 7 7 6 5 5 4 3 5 6 5 5 5 5 5 4 3 4 4 3 3 4 3 4
8 9 8 8 8 5 6 5 4 11 11 8 12 12 10 7 9 8 9 6 6 7 5 4 4 6 7 9 9 9 7 7 8 9 8 9 10 10 10 9 8 8 6 5 3 2 2 1 2 7 5 5 5 5 6 6 5 5 5 4 3 3 3 1 1 4 7 11 6 6 7 6 9 8 8 8 7 7 6 5 5 4 5 6 4 5 5 5 5 4 4 4 4 3 2 3 4
7 7 9 10 8 8 9 10 8 6 8 8 10 9 9 8 10 12 7 6 7 7 4 2 3 5 5 7 8 8 7 8 9 9 10 10 11 10 10 10 9 7 7 5 3 1 0 1 1 6 6 6 6 8 5 3 4 4 6 6 6 4 4 6 6 7 10 10 8 7 9 8 8 8 8 8 9 8 7 7 5 5 5 5 6 4 4 5 5 5 6 4 4 3 2 1 2
7 2 6 7 11 10 9 10 9 8 9 5 10 11 7 7 11 8 9 11 4 10 12 4 3 6 7 8 7 7 6 7 8 9 9 10 10 11 11 10 10 10 8 6 5 4 3 2 1 5 5 5 2 4 6 6 6 5 7 8 8 6 5 1 2 7 11 9 6 8 8 8 9 8 7 8 7 8 8 6 5 5 4 4 5 4 4 4 5 6 5 6 5 5 4 3 3
8 4 6 7 7 9 11 11 10 9 8 10 10 9 9 8 6 6 15 11 9 8 10 15 18 6 8 8 8 7 6 6 7 9 9 9 10 11 11 11 10 10 7 6 5 6 5 5 8 6 3 3 3 3 2 5 5 4 3 4 5 8 8 9 11 10 11 7 6 7 6 7 8 7 6 8 7 7 9 7 7 6 5 5 6 6 6 5 4 4 4 4 5 5 5 6 5
4 5 7 9 8 10 11 9 9 9 8 10 9 10 7 7 3 5 8 9 7 8 8 7 11 8 7 7 6 7 6 6 8 9 9 9 10 11 11 11 9 10 9 5 4 3 4 4 4 6 6 1 4 3 4 4 4 5 5 6 5 7 11 11 7 7 7 8 6 7 6 7 7 7 7 7 8 8 8 9 8 7 6 6 6 6 7 7 7 5 6 6 6 6 6 5 5
3 7 7 6 10 11 11 9 9 10 10 9 10 8 8 6 10 5 6 8 6 7 8 8 5 2 5 4 4 4 5 6 8 8 9 9 10 9 9 10 11 9 7 5 4 3 5 4 4 8 7 2 1 3 3 4 3 7 7 8 11 9 5 6 7 8 10 10 6 7 6 7 7 7 8 8 7 8 7 7 7 8 8 7 6 6 7 7 6 5 5 6 6 7 5 5 7
9 8 7 9 9 9 9 8 9 8 9 10 10 11 5 6 2 4 6 3 7 7 5 5 3 4 2 2 3 5 4 5 6 7 8 9 9 9 10 12 8 9 7 7 5 3 2 4 3 6 6 2 2 2 3 4 2 6 7 7 6 5 7 7 6 7 8 6 6 7 6 6 4 4 4 5 6 6 7 8 7 7 6 6 7 7 6 8 7 5 4 7 7 8 6 7 6
8 7 8 8 9 8 9 8 8 7 8 8 8 10 9 8 3 1 2 6 8 7 6 5 4 1 3 2 2 4 4 5 5 7 8 9 9 10 10 10 9 8 8 6 5 6 5 1 3 4 5 3 3 3 3 3 3 7 5 4 6 5 5 5 5 6 3 2 1 1 3 2 0 1 2 2 4 5 4 4 8 8 8 6 7 6 5 6 7 6 5 6 7 8 7 7 6
7 8 8 9 5 3 6 7 8 6 7 4 6 8 9 5 6 4 4 5 6 6 4 2 2 1 3 3 3 4 4 5 5 6 6 8 8 8 9 9 7 7 8 7 5 5 6 6 2 2 3 1 2 1 4 3 5 3 4 6 1 5 6 6 3 2 2 2 2 4 3 1 0 2 2 3 3 4 3 3 4 6 6 7 7 7 6 5 7 7 7 7 7 8 7 7 7
7 7 6 6 5 6 7 4 3 5 7 5 9 9 6 5 2 2 5 5 4 4 4 1 2 2 1 2 1 4 5 5 5 4 5 7 7 7 7 7 7 5 7 6 5 5 5 5 5 4 2 3 3 3 2 3 4 5 6 3 3 6 5 4 5 1 1 2 3 3 1 2 3 4 2 1 2 2 3 4 4 5 4 3 3 4 5 5 4 6 7 7 7 7 7 8 8
5 4 2 4 4 5 5 1 3 5 4 6 4 3 1 3 5 7 5 3 4 4 3 3 2 2 2 2 4 4 4 5 4 4 5 6 6 6 6 5 5 4 5 5 6 5 4 4 3 3 4 4 5 5 3 1 3 4 3 2 6 4 1 1 6 2 3 3 3 2 1 2 2 1 1 2 3 2 3 2 3 6 9 9 6 3 4 5 5 5 5 6 7 7 8 7 7
4 2 7 8 3 4 4 2 7 5 3 6 3 1 2 2 2 6 5 6 4 3 5 4 4 3 1 1 2 3 3 4 4 4 4 5 5 5 4 3 3 4 5 4 5 3 3 3 4 3 4 4 5 4 4 5 2 2 3 1 5 8 5 5 4 1 0 1 3 3 3 2 1 3 4 4 2 1 1 2 1 2 4 3 4 8 12 11 7 5 5 5 6 5 7 8 7
4 3 5 8 3 2 3 5 8 6 5 8 3 6 5 6 3 5 6 6 6 6 6 5 4 2 2 1 1 3 4 2 3 4 4 4 4 5 4 3 3 3 4 4 5 4 4 3 3 3 4 3 4 3 4 4 3 3 3 4 4 3 4 4 3 3 2 1 2 3 4 3 3 3 2 1 5 3 2 1 2 4 5 6 7 8 9 9 11 7 6 6 6 4 5 6 6
7 7 3 5 4 7 6 3 1 4 6 3 6 6 6 6 2 1 2 4 6 7 6 5 3 3 3 2 2 3 4 5 4 5 4 4 3 3 4 2 3 3 4 4 4 3 3 3 4 4 4 3 3 3 3 3 4 3 4 4 2 2 1 4 4 2 2 2 3 3 3 3 3 4 3 2 1 2 1 3 2 3 4 5 5 4 5 7 7 5 5 7 4 4 5 7 6
7 5 1 5 1 4 6 2 7 7 6 4 8 7 6 3 2 3 8 10 9 7 6 5 4 4 3 3 3 4 5 4 4 4 4 3 3 3 1 4 4 2 3 4 5 3 4 3 3 3 5 4 3 3 3 3 3 3 2 2 3 3 3 3 3 3 2 2 3 4 4 4 3 3 3 4 4 1 2 3 3 3 4 5 5 7 7 7 4 4 6 7 3 1 6 9 7
3 6 7 5 7 7 5 1 6 6 6 5 2 1 0 3 2 10 9 8 8 7 6 5 5 3 3 3 4 3 4 4 3 3 3 3 3 4 3 3 3 3 3 2 3 4 4 3 4 4 2 3 4 4 3 5 5 4 3 2 3 3 1 1 1 1 3 4 4 4 4 4 3 3 2 4 6 2 2 4 4 4 5 6 6 6 5 4 4 5 4 4 3 3 7 8 5
4 3 5 3 7 2 1 1 4 5 3 4 7 4 2 1 2 1 8 4 7 8 7 6 5 5 3 4 3 4 3 3 3 4 4 4 4 4 4 4 4 2 1 2 2 3 5 3 4 4 6 5 4 3 4 5 5 6 4 3 3 4 3 2 2 2 4 6 4 2 2 3 0 3 3 5 7 6 4 5 6 6 6 5 6 6 4 4 3 4 4 4 3 3 1 1 2
3 2 2 5 0 1 4 3 1 3 3 5 5 3 3 5 3 4 8 11 8 7 7 7 7 5 4 2 3 2 3 3 4 4 3 3 4 4 5 6 5 4 3 4 3 1 3 5 4 6 7 6 5 5 4 4 4 4 5 5 6 5 3 3 5 5 3 3 3 5 6 6 6 5 5 6 7 7 6 7 7 7 7 6 7 7 6 5 4 4 4 3 4 2 1 2 2
Wind_Direction
275 239 245 241 238 256 247 196 250 203 237 245 263 256 258 244 263 270 233 231 242 357 319 60 38 8 54 223 310 53 67 53 11 38 153 86 139 155 145 142 150 127 124 125 126 142 142 139 143 143 143 142 142 138 134 132 131 128 125 125 125 124 125 124 121 119 117 116 117 118 115 115 112 112 113 112 108 106 104 104 103 101 101 101 100 101 97 90 88 87 85 84 84 84 86 89 90
259 236 231 236 241 247 218 218 250 266 241 257 249 257 256 261 232 275 278 98 294 176 313 59 1 339 352 16 300 80 55 63 68 93 84 109 121 147 133 141 144 131 125 125 135 145 147 143 140 142 143 143 144 139 134 132 131 129 128 127 127 127 127 126 122 120 121 119 119 119 117 116 115 115 114 112 109 107 105 103 102 101 98 100 102 102 101 95 89 87 84 83 85 86 88 88 91
282 274 214 228 243 242 279 196 251 247 254 253 250 254 256 290 316 253 306 292 208 278 91 121 176 243 40 82 297 70 75 97 97 95 98 134 138 147 144 154 152 132 124 129 139 147 145 141 142 142 144 145 144 141 136 132 131 131 131 131 131 131 130 128 126 125 124 122 120 120 119 119 119 119 118 115 113 109 107 105 102 98 96 98 101 102 99 92 87 86 85 84 85 88 88 89 93
285 271 269 204 234 213 236 229 247 256 253 259 270 259 274 304 278 327 280 270 298 323 227 86 336 74 248 316 68 110 133 115 106 113 127 152 146 148 147 162 155 143 134 139 147 148 142 142 143 145 143 144 147 145 138 134 132 133 134 134 135 134 132 131 130 129 126 124 122 121 121 121 122 124 120 117 114 111 108 106 104 100 97 97 102 102 99 92 88 85 84 85 84 86 88 90 87
266 261 253 241 253 220 224 238 242 237 247 254 272 271 262 264 100 304 307 294 263 240 297 118 272 146 285 230 125 237 98 105 101 122 133 143 143 147 150 159 160 140 140 145 148 145 135 140 144 145 142 146 147 147 141 138 136 138 138 139 138 136 135 133 134 132 129 125 124 122 122 124 126 126 122 118 114 112 108 107 105 102 99 98 100 100 95 90 88 85 85 86 87 85 87 88 85
249 256 241 249 237 295 270 241 229 236 248 249 250 257 236 244 116 186 297 321 281 233 327 304 344 286 187 179 146 81 134 131 114 110 129 138 141 142 150 159 162 149 142 153 145 138 145 141 144 143 140 144 147 149 147 143 141 140 140 141 141 138 136 136 136 134 129 125 124 125 125 128 130 126 123 118 116 112 110 108 106 103 102 102 100 97 95 91 89 88 84 83 85 82 81 83 83
234 235 223 213 253 267 261 252 254 257 247 247 252 263 73 33 232 228 132 338 288 301 269 259 288 212 256 32 78 108 90 121 135 135 148 138 144 147 152 160 158 154 147 152 146 146 150 146 146 146 145 148 150 151 147 144 142 141 141 142 141 140 138 139 138 134 129 126 126 126 128 130 130 127 123 119 116 113 112 110 107 104 102 103 100 97 94 90 88 86 85 83 83 86 83 80 78
252 273 214 218 232 215 237 254 257 259 256 249 260 260 182 166 163 229 192 175 220 233 217 202 227 244 296 200 158 115 109 118 120 126 131 143 143 148 154 161 162 162 152 152 142 141 143 149 150 150 150 150 152 151 148 148 145 142 141 141 141 142 143 140 138 133 131 130 128 128 130 131 131 129 123 121 118 115 112 112 106 102 101 100 98 96 93 90 88 86 86 86 85 85 85 79 70
234 235 262 248 236 237 239 239 246 243 264 266 256 239 82 135 225 193 203 216 269 208 281 280 259 252 70 358 90 93 96 112 118 122 137 144 146 146 150 172 164 160 157 152 141 136 149 150 150 148 148 148 150 150 148 150 147 146 142 141 141 143 144 140 136 132 131 131 128 128 131 132 132 130 125 122 119 116 116 112 108 106 105 102 100 97 94 93 90 87 86 87 87 85 81 75 67
241 240 220 244 249 239 245 244 241 245 250 247 254 250 217 183 184 206 274 263 237 313 247 336 4 358 329 283 119 100 101 113 121 126 136 143 142 146 162 168 173 162 158 148 133 141 154 152 150 147 148 147 148 150 146 148 148 144 139 139 141 144 142 138 132 130 130 131 129 129 130 132 133 129 126 122 120 120 119 115 113 111 107 103 101 98 96 93 92 90 87 84 85 84 80 73 61
236 208 260 252 233 251 251 253 250 247 259 260 245 223 258 221 221 233 230 260 269 247 35 254 43 236 231 345 94 109 121 123 130 129 138 145 145 148 153 175 171 160 166 131 138 152 150 151 150 146 146 144 147 149 145 143 143 145 139 139 141 140 135 132 130 130 132 130 128 129 128 131 132 129 126 123 124 124 122 119 117 114 109 106 103 100 97 94 91 88 87 88 88 86 78 67 58
240 232 204 241 253 248 244 254 257 256 247 266 260 218 185 247 44 279 268 245 242 285 248 253 245 10 309 109 145 136 116 111 98 114 130 111 106 94 85 55 353 198 155 133 141 152 150 150 151 147 144 144 145 145 143 140 139 139 139 138 137 133 131 130 127 127 128 127 127 128 126 128 130 129 127 127 126 126 125 123 120 116 114 110 107 103 100 95 92 92 91 92 90 86 79 69 60
250 237 226 237 246 249 262 266 261 273 279 257 263 197 240 246 228 239 235 280 294 283 277 87 324 337 281 317 115 128 122 109 119 117 121 133 123 98 82 54 114 310 173 140 146 152 150 151 150 149 146 146 145 144 141 140 136 137 140 137 135 133 134 132 131 132 133 132 131 131 128 127 128 128 129 130 129 127 127 125 121 120 118 114 111 106 102 98 94 92 94 91 90 87 84 78 71
239 243 252 242 243 263 270 274 275 260 231 261 296 3 239 261 244 289 8 269 249 240 2 281 148 323 284 326 116 131 141 142 137 131 123 120 109 91 84 99 72 34 274 157 148 150 149 153 150 150 148 148 145 144 144 144 140 139 139 137 136 135 135 134 133 134 135 138 136 133 132 130 129 130 132 133 133 131 129 126 125 123 121 118 113 109 104 102 99 97 94 92 90 91 91 89 82
247 248 258 267 268 254 243 256 260 242 255 291 256 227 249 241 113 29 283 297 276 359 342 263 7 6 334 209 128 162 153 136 145 138 125 120 89 63 66 56 46 59 292 227 145 148 149 149 151 149 150 147 147 148 150 146 143 142 140 138 139 138 137 136 136 134 134 137 141 139 135 135 134 135 136 136 136 136 132 129 128 128 124 120 118 112 110 108 107 105 103 101 96 95 90 89 77
245 261 256 260 255 258 254 253 247 276 283 275 272 31 259 50 100 277 250 258 304 294 75 287 106 247 293 286 323 147 144 137 153 143 133 124 107 90 69 44 51 37 346 311 169 151 146 147 149 151 152 150 150 148 146 147 147 144 141 142 141 141 143 140 140 136 133 138 140 142 141 141 141 142 143 141 141 140 139 135 134 130 127 123 122 119 118 116 116 119 116 114 114 111 115 98 65
230 250 259 246 254 254 265 260 267 262 293 81 310 143 182 187 102 208 326 323 312 279 298 243 273 284 223 203 58 135 146 152 139 146 141 137 123 111 80 55 33 56 40 324 244 161 152 152 149 154 155 151 150 145 142 145 150 147 146 146 146 145 146 147 146 143 142 145 146 148 148 151 145 149 148 144 142 145 141 135 137 134 129 128 128 128 126 127 127 129 134 136 137 134 124 124 116
217 229 245 253 253 255 260 259 256 282 296 122 79 17 15 274 286 236 182 262 243 267 278 289 297 254 304 309 331 173 150 159 153 143 148 146 122 114 98 107 165 157 162 177 279 174 160 155 155 156 154 155 149 144 148 145 150 151 147 147 148 148 149 150 151 151 150 152 154 151 161 153 150 156 156 146 151 143 143 141 139 137 134 135 137 135 136 136 137 140 144 148 152 154 152 146 158
228 224 236 246 243 253 271 286 263 357 289 241 47 96 347 309 304 45 330 261 228 235 244 259 265 272 265 277 269 222 248 143 145 87 60 29 47 64 112 152 197 148 170 276 209 340 166 151 162 156 155 156 150 149 146 145 153 155 153 154 152 152 155 159 164 158 158 161 161 166 166 164 161 158 145 155 146 148 143 142 140 141 142 143 144 143 143 141 143 146 155 162 168 171 178 145 170
230 258 231 232 260 273 272 259 315 334 352 345 57 113 176 250 280 279 195 265 307 294 296 240 222 238 261 285 246 228 77 52 62 74 75 81 88 77 23 20 8 17 14 357 320 41 30 43 158 159 160 154 156 150 142 151 157 157 153 153 153 157 163 172 173 170 167 167 166 182 167 168 160 150 149 151 143 140 142 142 145 145 147 148 150 146 147 147 147 155 161 175 181 187 233 28 242
193 233 247 250 228 240 252 340 274 218 311 312 328 23 165 213 279 286 284 283 254 269 288 295 307 308 296 257 255 53 60 69 79 84 93 99 93 102 127 122 84 45 2 352 323 334 88 113 31 265 165 156 161 143 146 156 161 159 159 154 159 166 171 181 173 189 171 171 173 177 168 166 155 137 137 150 147 147 149 148 150 154 154 156 163 155 164 155 160 165 174 180 205 206 224 216 190
250 223 237 260 272 274 322 291 340 350 349 307 311 299 306 38 211 242 255 271 274 266 242 351 347 354 355 2 8 24 78 76 87 95 108 128 142 141 143 130 139 115 269 66 6 318 343 121 136 177 232 174 158 148 155 158 164 160 161 155 167 169 179 181 174 192 170 166 167 174 163 164 145 138 152 161 155 155 156 159 167 165 166 165 185 166 174 161 189 169 177 192 210 209 219 193 114
239 243 264 264 268 277 321 331 26 352 317 313 290 274 281 283 296 288 291 270 283 280 303 334 344 341 2 348 356 16 78 80 94 113 140 130 120 130 145 151 160 155 149 90 348 26 308 339 69 71 42 286 151 163 155 156 172 163 160 163 167 171 185 175 182 186 163 164 161 170 163 157 154 155 164 165 158 161 161 168 174 170 163 170 195 176 163 170 205 174 177 195 205 204 185 127 113
231 253 223 231 249 254 274 293 334 340 256 277 284 298 283 284 263 258 270 297 291 295 291 334 297 292 354 330 350 1 91 95 95 76 53 86 106 132 138 130 177 140 140 133 140 61 318 325 27 116 126 124 297 192 163 170 178 166 163 168 171 175 181 175 185 181 156 168 158 176 172 166 164 159 161 166 163 165 166 179 162 169 170 172 200 175 160 170 194 191 170 193 191 135 116 101 95
226 248 260 278 334 321 325 294 284 294 292 274 290 277 272 261 267 298 275 257 270 313 326 282 314 5 314 317 351 5 97 95 81 79 83 98 116 131 121 131 141 137 117 121 125 145 204 280 304 169 156 170 196 191 179 174 182 170 165 173 176 173 181 178 175 178 156 170 157 169 183 166 163 150 161 169 164 165 170 182 159 172 173 173 177 202 169 169 187 193 196 185 119 129 99 106 114
233 247 265 323 355 285 266 256 254 266 288 268 255 257 263 269 282 269 275 274 262 286 271 351 298 322 341 316 318 318 95 99 98 86 94 112 125 132 140 141 148 155 147 139 148 160 142 351 310 268 190 176 213 217 176 181 181 175 168 177 178 169 181 177 169 166 153 175 158 169 181 168 157 156 158 168 161 163 154 152 206 165 179 165 170 188 187 169 184 189 164 157 142 115 117 124 122
227 228 91 256 274 285 241 266 264 246 237 252 251 252 247 245 242 251 237 244 262 254 341 320 305 289 297 325 279 225 93 104 110 120 112 111 122 131 141 157 173 162 164 158 158 160 167 181 211 212 203 181 242 294 218 191 182 168 170 176 174 174 178 165 166 151 164 190 156 170 174 178 162 155 161 169 168 164 170 166 199 158 159 179 186 181 194 155 163 159 143 114 122 107 117 126 108
287 355 277 250 265 259 264 215 265 235 231 228 259 260 250 248 210 252 279 332 44 351 321 311 304 305 261 246 296 88 108 109 116 117 116 120 128 134 145 165 195 173 194 183 172 165 163 172 192 197 194 187 191 221 239 206 182 173 181 171 169 181 167 168 166 151 175 167 157 187 158 173 161 150 160 163 168 167 170 170 175 159 170 158 172 175 156 168 156 163 123 109 86 120 135 111 135
241 230 265 252 227 238 226 228 224 210 247 179 224 257 248 213 205 227 199 62 356 265 270 297 322 301 293 282 240 69 78 80 86 92 103 108 124 134 139 168 171 189 213 230 231 197 169 176 179 182 184 185 186 202 225 225 180 177 179 192 160 178 167 170 168 153 173 152 157 195 148 170 161 152 164 152 158 160 156 155 159 160 157 150 177 187 169 166 151 104 129 114 128 120 107 137 154
264 258 260 256 227 226 201 220 197 222 79 154 227 254 228 210 206 214 71 194 296 318 283 273 254 252 265 265 48 78 92 86 84 99 111 131 129 137 142 153 171 184 207 211 227 283 349 61 104 178 183 180 184 198 202 209 177 185 180 192 154 162 168 172 165 161 168 146 149 182 142 173 140 145 154 137 165 145 152 166 155 144 155 147 157 163 123 136 125 148 104 90 113 142 139 123 111
238 241 227 253 246 226 177 201 154 232 122 231 156 272 280 203 154 74 14 324 284 308 335 273 239 317 9 28 45 61 78 71 86 86 104 105 121 135 144 149 155 164 179 175 188 215 197 164 149 177 198 193 189 194 205 197 167 171 141 344 158 159 178 168 176 156 164 139 146 157 160 157 137 150 153 141 170 135 159 176 152 155 151 137 145 154 151 175 158 149 145 146 180 103 144 152 160
233 239 222 233 247 248 152 190 169 230 149 211 207 256 260 67 83 132 337 313 306 292 292 2 11 358 27 26 28 26 63 69 70 93 107 126 126 152 159 150 152 156 169 180 189 193 196 193 175 178 190 200 140 356 351 346 7 29 19 326 76 328 163 181 176 160 172 134 147 159 171 158 154 170 159 159 154 135 172 162 164 133 127 129 153 157 167 179 165 177 134 135 144 180 189 121 136
218 235 239 231 225 139 164 185 176 218 248 148 243 268 138 126 78 13 18 284 88 266 158 66 8 30 27 21 22 49 30 37 46 81 114 127 141 146 165 155 162 163 170 166 192 194 199 193 186 185 184 162 122 182 296 42 32 23 12 347 356 63 45 308 170 170 162 143 151 160 168 160 172 165 158 189 176 150 182 154 198 122 131 153 147 163 225 190 149 188 147 158 148 118 197 152 188
212 206 240 254 247 158 218 162 195 197 197 233 193 241 266 68 139 109 130 297 323 351 57 15 39 48 52 29 56 65 69 56 44 26 61 114 139 149 148 168 173 171 176 187 190 191 192 201 210 203 184 165 168 155 163 83 338 213 241 138 345 314 269 31 274 163 162 148 157 160 165 157 177 158 157 185 237 173 180 159 180 133 156 164 143 167 235 201 158 148 133 189 145 205 206 163 166
210 194 235 256 256 205 344 183 164 192 149 257 247 241 227 150 127 202 105 77 288 85 330 42 39 74 55 40 63 63 59 59 39 8 359 11 111 141 153 154 172 172 171 201 200 190 195 202 203 199 209 190 162 130 124 140 17 319 306 280 71 310 314 358 309 199 185 153 161 153 159 156 180 157 166 173 214 245 177 166 143 147 163 154 147 170 241 248 158 131 137 159 348 228 245 197 163
246 272 216 238 242 211 231 94 142 176 165 205 237 238 232 164 186 132 179 152 351 52 83 243 110 61 48 61 65 62 61 52 37 4 347 11 357 132 153 148 164 173 178 179 196 207 207 189 330 249 207 180 135 107 113 126 152 268 303 315 61 276 307 318 318 280 182 150 161 151 156 159 169 163 168 166 195 231 271 149 141 152 176 158 160 182 214 239 171 146 164 152 167 312 330 314 122
330 318 314 316 305 282 214 130 72 54 317 270 252 241 251 79 26 88 36 134 198 209 78 323 76 83 62 55 70 67 60 55 38 17 15 27 15 111 151 152 160 195 199 182 186 194 211 209 174 247 241 172 173 150 149 148 158 174 191 239 227 199 317 339 299 303 250 157 173 149 157 162 170 165 168 162 185 210 239 159 144 157 178 169 169 200 214 218 190 152 148 159 161 169 282 301 284
299 302 272 259 252 261 270 232 157 150 190 259 265 275 247 143 182 207 199 135 221 137 136 115 65 85 75 69 70 68 55 50 33 25 19 21 39 26 22 10 150 191 193 214 201 204 199 211 189 225 233 220 189 146 142 137 136 117 140 75 302 298 143 200 301 313 293 192 172 144 152 170 164 167 169 165 180 195 217 207 150 162 186 175 174 183 217 242 200 159 157 162 189 188 198 256 284
252 254 265 261 256 263 252 312 255 89 140 265 263 236 242 230 200 215 184 227 85 357 71 67 60 49 89 72 61 61 54 49 39 39 28 18 29 29 27 46 26 339 307 322 21 24 340 313 332 178 341 220 85 76 74 84 83 119 121 156 229 337 329 6 15 272 275 276 162 143 148 170 160 168 176 168 178 189 203 210 163 163 178 188 175 178 202 210 230 177 165 172 171 195 209 209 261
259 247 241 256 257 262 265 238 309 156 194 282 267 262 224 221 217 205 201 224 176 152 109 95 93 90 74 77 69 64 62 44 47 34 29 23 28 33 38 33 20 10 33 3 343 28 244 226 233 108 202 224 146 149 144 171 169 159 160 166 181 174 171 9 1 294 275 255 211 147 158 181 165 171 182 169 179 185 193 202 192 167 178 194 180 184 184 202 200 203 168 181 186 184 184 219 218
228 246 274 269 278 277 263 276 244 278 249 203 271 281 289 207 207 199 187 212 156 163 141 94 92 89 86 73 66 63 57 62 50 37 32 27 25 33 37 43 37 27 13 345 310 287 1 26 97 160 161 112 148 183 173 170 171 154 124 141 81 107 108 254 328 273 233 238 194 169 166 193 168 175 179 177 181 179 194 199 199 192 179 185 195 188 185 198 199 200 185 179 192 198 210 190 196
271 261 272 292 284 272 270 261 248 225 257 235 236 260 248 233 215 201 184 197 190 153 157 133 122 91 92 86 80 72 68 54 56 43 30 20 18 18 28 37 42 34 16 341 317 320 250 21 356 158 132 135 175 167 169 162 230 136 141 146 143 138 154 184 204 210 233 218 186 174 174 187 178 181 178 186 179 174 191 195 200 197 187 185 191 201 192 191 208 196 189 178 190 199 224 304 252
293 292 335 265 245 244 249 254 249 246 253 219 221 248 251 227 211 175 152 203 171 47 9 26 93 55 48 58 66 63 53 61 59 50 36 22 19 20 28 37 36 34 33 10 28 56 64 303 134 144 149 123 166 220 164 151 198 196 181 168 156 132 108 57 328 261 228 221 184 180 177 183 184 187 181 189 190 172 180 193 201 204 195 181 183 202 217 209 202 213 189 172 184 182 182 225 255
246 320 240 269 270 258 250 252 251 265 249 255 235 210 253 262 341 211 179 165 68 55 32 359 337 37 3 36 39 51 52 51 56 53 39 29 25 21 22 44 41 37 38 26 25 51 69 100 111 105 68 98 114 302 197 160 175 185 103 62 120 121 149 199 197 221 262 242 181 186 175 183 188 187 187 184 204 173 172 189 197 200 212 190 184 197 211 212 224 207 178 159 166 175 183 198 214
267 205 248 270 270 260 261 260 259 256 265 253 241 244 251 254 107 96 116 97 85 84 81 46 294 360 3 9 25 45 15 37 52 47 42 36 26 25 31 46 44 42 35 33 27 35 62 76 72 96 94 83 142 160 169 187 152 137 121 130 162 183 178 198 204 174 242 250 197 181 192 181 188 188 194 196 199 191 178 185 191 194 205 208 195 199 199 208 215 201 181 174 167 175 188 193 199
242 321 316 280 274 268 264 263 257 256 251 251 249 236 261 224 117 142 186 154 152 138 144 181 221 83 23 347 338 14 19 2 47 47 45 40 32 30 38 50 46 49 36 54 31 25 354 21 73 98 100 143 189 101 103 146 191 159 172 178 190 191 190 181 191 193 201 226 194 181 194 179 192 187 191 207 202 197 191 187 189 198 197 208 210 205 197 202 214 212 178 165 173 183 187 181 196
284 284 288 274 250 248 252 258 273 280 255 258 266 266 238 260 246 178 172 217 166 145 151 162 124 130 65 16 340 19 18 11 28 52 43 38 35 30 37 44 45 52 40 35 31 4 329 352 350 86 83 61 132 117 118 135 206 204 190 212 198 191 194 189 201 203 209 200 191 193 189 180 180 188 190 206 211 213 196 187 194 201 207 202 212 217 200 193 196 204 181 167 181 187 185 187 202
279 268 263 269 258 251 247 247 224 249 260 263 260 249 160 251 154 103 91 87 109 135 140 158 141 36 105 56 6 42 42 9 28 41 39 39 34 31 31 39 29 39 48 43 19 28 49 101 360 45 104 125 41 58 86 125 153 219 239 226 226 212 197 191 191 194 204 217 358 30 357 24 102 207 227 243 246 236 227 206 191 197 199 200 204 219 229 186 181 185 191 178 185 192 189 187 196
236 259 267 260 268 282 249 225 229 223 256 290 307 354 303 284 54 116 112 117 104 110 120 156 156 183 75 45 4 76 20 24 31 28 43 48 35 29 31 29 23 22 47 39 31 36 31 45 79 50 65 74 141 223 151 143 132 263 249 243 116 20 310 276 201 184 191 183 166 178 174 131 204 309 360 334 324 322 310 282 241 211 210 197 197 204 233 221 176 184 195 194 186 193 198 194 198
241 248 265 252 268 250 246 252 316 290 249 324 296 323 265 93 80 103 133 124 104 122 123 162 140 98 28 71 41 30 46 40 27 20 30 48 35 35 34 30 24 17 39 44 54 60 47 54 68 87 80 45 97 179 211 171 170 198 216 198 145 216 248 2 307 342 177 53 28 358 295 200 180 185 196 242 296 280 279 288 297 293 271 264 220 211 216 234 217 191 186 191 196 200 202 203 208
296 287 337 360 351 297 281 331 282 262 322 288 312 254 321 244 172 218 131 120 141 124 162 154 98 94 95 349 53 50 34 40 16 20 36 43 46 39 40 29 25 16 37 38 45 49 55 62 64 82 91 77 78 81 112 163 219 206 234 160 153 236 291 137 276 330 4 6 2 345 327 334 348 349 287 189 213 237 246 288 354 0 344 332 320 287 246 233 231 226 206 201 198 195 199 202 209
261 359 287 252 218 164 257 274 275 311 305 274 223 181 148 1 119 135 171 131 134 179 153 180 171 170 195 243 50 60 44 47 17 19 30 39 51 52 51 34 19 20 35 44 59 39 47 88 83 53 75 78 73 98 110 112 107 92 98 109 159 211 183 198 222 246 302 347 316 327 317 321 335 333 309 310 272 278 48 67 228 177 200 236 301 333 326 315 284 243 231 218 217 203 199 198 206
68 315 281 278 108 256 283 266 268 284 273 260 191 109 67 118 147 127 178 170 169 193 160 202 162 170 136 81 65 62 75 67 54 37 30 28 48 56 44 27 31 15 28 36 53 41 41 32 75 75 77 94 115 113 112 142 138 116 83 129 190 215 182 186 214 198 178 229 299 296 286 291 307 265 258 46 58 30 324 285 236 247 237 211 194 190 206 237 268 266 248 233 224 221 216 210 206
296 265 352 332 252 264 267 275 339 242 252 274 335 123 171 176 192 295 259 202 187 167 180 158 155 165 138 103 110 75 69 57 58 47 33 22 46 51 60 342 67 22 30 11 50 62 32 27 28 53 46 52 63 93 101 94 99 97 133 138 143 208 202 194 181 174 142 194 198 233 274 302 292 300 322 326 151 208 164 257 260 270 293 307 294 282 250 247 255 258 279 277 273 313 329 305 259
281 299 316 293 345 257 217 241 250 261 250 264 140 160 133 201 173 202 202 207 173 177 166 169 168 162 102 95 60 76 71 48 51 55 48 40 52 79 48 74 59 99 50 20 358 60 61 20 27 50 56 19 42 53 46 71 94 108 90 104 139 186 232 228 169 156 165 215 224 233 238 219 237 280 345 312 268 230 102 254 238 239 241 252 246 233 239 248 240 270 264 252 183 178 249 259 282
320 331 289 216 167 218 271 213 315 311 275 254 157 263 218 120 102 181 193 198 163 182 180 160 156 147 145 113 66 65 84 69 56 64 75 57 48 80 106 102 115 37 51 32 26 353 55 66 16 16 75 65 28 46 50 40 35 50 60 83 101 104 131 284 125 223 247 212 221 228 239 238 222 226 222 250 266 241 204 245 260 246 235 242 255 257 242 242 225 219 224 259 266 175 229 241 225
286 308 277 269 251 304 82 267 257 288 341 297 291 275 140 94 114 123 113 234 192 186 173 149 158 140 126 97 56 66 59 83 70 51 41 55 50 52 74 75 78 67 121 130 64 20 351 348 115 53 25 23 34 18 55 56 29 21 20 29 74 104 106 133 141 176 245 277 277 262 257 261 272 246 243 246 250 237 220 245 251 246 240 240 247 256 260 264 237 244 238 244 262 276 169 271 275
281 162 306 314 260 302 236 239 290 288 203 283 308 315 89 121 148 139 149 209 180 166 153 158 153 138 99 132 91 107 110 77 85 57 42 20 61 54 80 86 63 29 25 27 34 31 30 345 11 64 44 14 25 340 55 68 61 34 21 14 27 15 83 116 126 173 227 281 318 326 306 302 261 213 196 233 254 249 214 230 241 248 244 242 245 245 250 238 240 234 250 224 247 219 221 266 283